Weather Roundup
Issued by NWS

Home | Current Version | Previous Version | Text Only | Print | Product List | Glossary On
Versions: 1 2 3 4 5 6 7 8 9 10 11 12 13 14 15 16 17 18 19 20 21 22 23 24 25 26 27 28 29 30 31 32 33 34 35 36 37 38 39 40 41 42 43 44 45 46 47 48 49 50
000
NZUS93 KARX 280259
HRRWXR

CURRENT HOURLY OBSERVATIONS ACROSS
MUCH OF THE UPPER MISSISSIPPI VALLEY
NATIONAL WEATHER SERVICE LA CROSSE WI
1000 PM CDT THU AUG 27 2015


...SOUTHEAST MINNESOTA...


CITY           SKY/WX    TMP DP  RH WIND       PRES   REMARKS
ROCHESTER      CLOUDY    63  59  87 S8        30.05S
ROCHESTER/MAYO FAIR      65  59  82 SE8       30.05S
WINONA         MOCLDY    70  61  73 CALM      30.05S
AUSTIN         CLOUDY    66  61  82 S3        30.05R
ALBERT LEA     LGT RAIN  64  61  88 S12G17    30.04R
DODGE CENTER   CLOUDY    63  59  88 SE7       30.05R
PRESTON        CLOUDY    63  58  85 S6        30.06F
OWATONNA       CLOUDY    64  61  88 SE8       30.02R
FARIBAULT      CLOUDY    64  61  88 SE5       30.02R
$$

...ELSEWHERE IN MINNESOTA...


CITY           SKY/WX    TMP DP  RH WIND       PRES   REMARKS
MINNEAPOLIS    MOCLDY    68  59  73 S10       30.00F
INTNL FALLS    CLOUDY    65  60  84 CALM      29.94S
DULUTH         CLOUDY    60  53  77 SE3       30.01S
RED WING       MOCLDY    66  61  82 SE5       30.01F
REDWOOD FALLS  CLOUDY    66  64  93 E3        29.97R
MANKATO        CLOUDY    64  57  77 S6        30.02R
WORTHINGTON    CLOUDY    63  59  88 S13       30.00R
FAIRMONT       CLOUDY    64  55  72 S12       30.01F
$$

...SOUTHWEST WISCONSIN...


CITY           SKY/WX    TMP DP  RH WIND       PRES   REMARKS
LA CROSSE      MOCLDY    67  60  78 S6        30.05F
PRAIRIE DU CHI MOCLDY    66  58  73 CALM      30.08F
BOSCOBEL       PTCLDY    62  59  90 CALM      30.10R
LONE ROCK      NOT AVBL
PLATTEVILLE    CLEAR     63  60  89 CALM      30.11R
FORT MC COY    MOCLDY    63  58  83 CALM      30.09S
VIROQUA        FAIR      63  60  90 S5        30.10S
WIS DELLS      PTCLDY    63  56  79 SE5       30.10S
$$

...ELSEWHERE IN WISCONSIN...


CITY           SKY/WX    TMP DP  RH WIND       PRES   REMARKS
MILWAUKEE      MOCLDY    62  55  77 SW5       30.14S
MADISON        MOCLDY    66  57  72 S7        30.11S
GREEN BAY      MOCLDY    62  57  83 S7        30.10S
EAU CLAIRE     NOT AVBL
BLACK RVR FLS  FAIR      60  60  99 CALM      30.06F
MEDFORD        CLOUDY    60  58  94 S5        30.09R
WAUSAU         PTCLDY    65  58  78 CALM      30.07S
WIS RAPIDS     PTCLDY    62  57  83 CALM      30.11R
MARSHFIELD     MOCLDY    62  56  80 S3        30.08F
RICE LAKE      CLOUDY    64  58  80 SE7       30.05F
$$

...NORTHEAST IOWA...


CITY           SKY/WX    TMP DP  RH WIND       PRES   REMARKS
DECORAH        CLOUDY    64  61  88 SE6       30.07S
MASON CITY     CLOUDY    64  61  90 S10       30.08R
CHARLES CITY   MOCLDY    63  63 100 SE9       30.07S
OELWEIN        MOCLDY    63  59  88 SE8       30.09R
$$

...ELSEWHERE IN IOWA...


CITY           SKY/WX    TMP DP  RH WIND       PRES   REMARKS
DES MOINES     MOCLDY    69  60  73 SE13G20   30.02R
IOWA CITY      PTCLDY    63  59  87 SE6       30.08S
FORT DODGE     MOCLDY    64  59  82 E7        30.04S
$$

...NORTHERN ILLINOIS...


CITY           SKY/WX    TMP DP  RH WIND       PRES   REMARKS
CHICAGO-OHARE  MOCLDY    65  56  72 E3        30.14R
CHICAGO-MIDWAY PTCLDY    67  57  70 E5        30.13R
MOLINE         CLEAR     62  57  83 SE5       30.08F
ROCKFORD       PTCLDY    60  55  83 CALM      30.15R
PEORIA         CLEAR     65  58  78 CALM      30.12R
$$

NOTE: "FAIR" INDICATES FEW OR NO CLOUDS BELOW 12,000 FEET WITH NO
SIGNIFICANT WEATHER AND/OR OBSTRUCTIONS TO VISIBILITY. WIND
SPEEDS ARE IN MILES-PER-HOUR.



USA.gov is the U.S. government's official web portal to all federal, state and local government web resources and services.